GW5591 Weather Reports


Display with metric or nautical units.
time (UTC)temp
F
wind
direction
speed
MPH
gust
MPH
rain 1hr
in
rain 24hr
in
rain mn
in
humidity
%
barometer
mb
20260507201410 55 189 1.0 7.0 0.00 0.01 0.01 44 1010.0
20260507200907 55 222 1.0 2.0 0.00 0.01 0.01 46 1010.3
20260507200402 54 26 2.0 2.0 0.00 0.01 0.01 46 1010.3
20260507195858 55 105 3.0 3.0 0.00 0.01 0.01 46 1010.2
20260507195356 56 114 1.0 1.0 0.00 0.01 0.01 46 1010.4
20260507194853 56 89 2.0 3.0 0.00 0.01 0.01 43 1010.4
20260507194349 55 152 2.0 3.0 0.00 0.01 0.01 45 1010.3
20260507193846 55 77 0.0 2.0 0.00 0.01 0.01 44 1010.5
20260507193343 55 100 1.0 4.0 0.00 0.01 0.01 44 1010.3
20260507192839 56 198 2.0 2.0 0.00 0.01 0.01 43 1010.6
20260507192336 55 151 2.0 4.0 0.00 0.01 0.01 46 1010.3
20260507191832 55 245 3.0 6.0 0.00 0.01 0.01 45 1010.5
20260507191328 56 109 2.0 4.0 0.00 0.01 0.01 43 1010.5
20260507190825 55 59 0.0 6.0 0.00 0.01 0.01 45 1010.4
20260507190324 56 159 3.0 4.0 0.00 0.01 0.01 43 1010.3
20260507185822 56 164 2.0 3.0 0.00 0.01 0.01 44 1010.5
20260507185319 57 145 3.0 3.0 0.00 0.01 0.01 42 1010.5
20260507184816 58 294 2.0 2.0 0.00 0.01 0.01 43 1010.4
20260507184314 58 267 2.0 3.0 0.00 0.01 0.01 46 1010.6
20260507183810 56 132 0.0 4.0 0.00 0.01 0.01 44 1010.8
20260507183308 57 114 3.0 6.0 0.00 0.01 0.01 41 1010.8
20260507182805 56 107 1.0 2.0 0.00 0.01 0.01 44 1010.7
20260507182300 57 20 1.0 4.0 0.00 0.01 0.01 40 1010.5
20260507181756 57 100 3.0 8.0 0.00 0.01 0.01 41 1010.6
20260507181253 58 91 3.0 4.0 0.00 0.01 0.01 41 1010.3
20260507180750 58 301 1.0 3.0 0.00 0.01 0.01 45 1010.5
20260507180247 57 95 1.0 3.0 0.00 0.01 0.01 46 1010.5
20260507175742 57 118 0.0 3.0 0.00 0.01 0.01 38 1010.4
20260507175239 58 294 5.0 7.0 0.00 0.01 0.01 42 1010.7
20260507174737 58 276 2.0 4.0 0.00 0.01 0.01 42 1010.5
20260507174235 57 314 2.0 3.0 0.00 0.01 0.01 45 1010.7
20260507173732 57 77 0.0 3.0 0.00 0.01 0.01 43 1010.8
20260507173229 57 164 2.0 3.0 0.00 0.01 0.01 43 1010.8
20260507172725 58 150 2.0 4.0 0.00 0.01 0.01 39 1010.9
20260507172222 57 312 1.0 4.0 0.00 0.01 0.01 46 1011.1
20260507171722 56 316 3.0 4.0 0.00 0.01 0.01 45 1011.4
20260507171220 57 61 1.0 3.0 0.00 0.01 0.01 42 1011.2
20260507170716 56 132 0.0 2.0 0.00 0.01 0.01 46 1011.3
20260507170214 55 109 2.0 3.0 0.00 0.01 0.01 41 1011.5
20260507165709 56 132 3.0 7.0 0.00 0.01 0.01 41 1011.4
20260507165206 56 155 1.0 4.0 0.00 0.01 0.01 42 1011.6
20260507164702 56 289 3.0 4.0 0.00 0.01 0.01 42 1011.4
20260507164159 56 171 2.0 3.0 0.00 0.01 0.01 41 1011.3
20260507163656 55 109 1.0 2.0 0.00 0.01 0.01 45 1011.6
20260507163154 55 88 0.0 2.0 0.00 0.01 0.01 44 1011.6
20260507162649 54 256 1.0 3.0 0.00 0.01 0.01 42 1011.6
20260507162146 55 200 3.0 6.0 0.00 0.01 0.01 43 1011.8
20260507161642 57 131 4.0 6.0 0.00 0.01 0.01 43 1011.8
20260507161139 56 104 0.0 3.0 0.00 0.01 0.01 42 1011.6
20260507160635 57 143 1.0 4.0 0.00 0.01 0.01 44 1011.6
20260507160132 56 104 0.0 1.0 0.00 0.01 0.01 41 1011.7
20260507155627 55 160 2.0 3.0 0.00 0.01 0.01 44 1012.0
20260507155124 55 126 1.0 2.0 0.00 0.01 0.01 47 1012.0
20260507154621 55 147 2.0 3.0 0.00 0.01 0.01 47 1012.0
20260507154119 54 100 1.0 2.0 0.00 0.01 0.01 51 1012.0
20260507153614 53 178 2.0 4.0 0.00 0.01 0.01 51 1011.9
20260507153112 54 158 1.0 2.0 0.00 0.01 0.01 47 1012.3
20260507152608 52 194 1.0 1.0 0.00 0.01 0.01 53 1012.1
20260507152104 51 130 2.0 3.0 0.00 0.01 0.01 50 1011.9
20260507151600 52 146 4.0 4.0 0.00 0.01 0.01 49 1012.2
20260507151057 53 81 0.0 1.0 0.00 0.01 0.01 46 1012.2
20260507150554 52 68 0.0 2.0 0.00 0.01 0.01 49 1012.2
20260507150051 53 115 1.0 2.0 0.00 0.01 0.01 46 1012.2
20260507145545 52 170 1.0 2.0 0.00 0.01 0.01 50 1012.6
20260507145044 52 176 6.0 7.0 0.00 0.01 0.01 50 1012.5
20260507144540 51 124 0.0 2.0 0.00 0.01 0.01 51 1012.7
20260507144038 51 147 3.0 6.0 0.00 0.01 0.01 51 1012.7
20260507143535 50 145 3.0 3.0 0.00 0.01 0.01 54 1012.7
20260507143032 50 89 0.0 1.0 0.00 0.01 0.01 50 1012.7
20260507142527 50 263 2.0 3.0 0.00 0.01 0.01 55 1012.8
20260507142025 49 172 1.0 6.0 0.00 0.01 0.01 54 1012.9
20260507141520 48 130 0.0 3.0 0.00 0.01 0.01 64 1013.0
20260507141017 48 147 1.0 2.0 0.00 0.01 0.01 57 1013.3
20260507140514 48 158 2.0 4.0 0.00 0.01 0.01 56 1013.0
20260507140012 47 129 2.0 3.0 0.00 0.01 0.01 58 1013.2
20260507135508 47 264 4.0 4.0 0.00 0.01 0.01 62 1013.3
20260507135006 47 101 1.0 3.0 0.00 0.01 0.01 61 1013.3
20260507134502 47 267 1.0 2.0 0.00 0.01 0.01 62 1013.5
20260507133958 47 156 3.0 4.0 0.00 0.01 0.01 63 1013.9
20260507133454 47 340 2.0 2.0 0.00 0.01 0.01 59 1013.3
20260507132953 46 117 0.0 0.0 0.00 0.01 0.01 63 1013.6
20260507132448 46 76 0.0 0.0 0.00 0.01 0.01 63 1013.7
20260507131945 45 111 0.0 2.0 0.00 0.01 0.01 62 1013.6
20260507131442 46 136 0.0 2.0 0.00 0.01 0.01 64 1013.9
20260507130939 46 124 0.0 1.0 0.00 0.01 0.01 65 1013.7
20260507130436 45 67 0.0 1.0 0.00 0.01 0.01 67 1013.7
20260507125935 45 197 0.0 3.0 0.00 0.01 0.01 68 1013.7
20260507125433 45 89 0.0 2.0 0.00 0.01 0.01 68 1014.0
20260507124930 45 138 1.0 3.0 0.00 0.01 0.01 67 1014.2
20260507124426 45 168 0.0 2.0 0.00 0.01 0.01 69 1014.0
20260507123924 44 113 0.0 1.0 0.00 0.01 0.01 70 1014.2
20260507123421 44 139 1.0 4.0 0.00 0.01 0.01 68 1014.3
20260507122918 44 132 0.0 2.0 0.00 0.01 0.01 68 1013.9
20260507122413 44 142 1.0 2.0 0.00 0.01 0.01 68 1014.0
20260507121909 43 160 1.0 3.0 0.00 0.01 0.01 68 1014.2
20260507121404 43 105 0.0 1.0 0.00 0.01 0.01 67 1014.0
20260507120901 43 122 0.0 1.0 0.00 0.01 0.01 68 1013.9
20260507120358 42 135 2.0 2.0 0.00 0.01 0.01 71 1013.9
20260507115854 42 120 0.0 0.0 0.00 0.01 0.01 79 1013.9
20260507115350 42 120 0.0 0.0 0.00 0.01 0.01 83 1014.0
20260507114846 41 120 0.0 0.0 0.00 0.01 0.01 87 1013.9
20260507114343 41 120 0.0 0.0 0.00 0.01 0.01 89 1013.9
20260507113840 41 120 0.0 0.0 0.00 0.01 0.01 91 1013.7
20260507113337 41 120 0.0 0.0 0.00 0.01 0.01 92 1013.6
20260507112835 41 120 0.0 1.0 0.00 0.01 0.01 92 1014.0
20260507112332 41 120 0.0 0.0 0.00 0.01 0.01 91 1013.5
20260507111830 41 120 0.0 0.0 0.00 0.01 0.01 90 1013.7
20260507111326 41 120 0.0 0.0 0.00 0.01 0.01 92 1013.6
20260507110822 41 120 0.0 0.0 0.00 0.01 0.01 92 1013.4
20260507110318 41 119 0.0 1.0 0.00 0.01 0.01 91 1013.3
20260507105816 41 120 0.0 0.0 0.00 0.01 0.01 90 1013.3
20260507105312 41 120 0.0 0.0 0.00 0.01 0.01 92 1013.3
20260507104809 41 120 0.0 0.0 0.00 0.01 0.01 92 1013.2
20260507104305 41 120 0.0 1.0 0.00 0.01 0.01 91 1013.0
20260507103802 41 120 0.0 0.0 0.00 0.01 0.01 91 1013.2
20260507103258 41 120 0.0 0.0 0.00 0.01 0.01 91 1013.2
20260507102754 41 120 0.0 0.0 0.00 0.01 0.01 91 1013.2
20260507102251 41 120 0.0 0.0 0.00 0.01 0.01 91 1013.1
20260507101747 41 120 0.0 0.0 0.00 0.01 0.01 91 1013.3
20260507101242 41 120 0.0 0.0 0.00 0.01 0.01 91 1013.0
20260507100740 41 120 0.0 0.0 0.00 0.01 0.01 90 1012.8
20260507100238 41 120 0.0 0.0 0.00 0.01 0.01 88 1013.2
20260507095736 41 120 0.0 0.0 0.00 0.01 0.01 89 1013.0
20260507095232 41 120 0.0 0.0 0.00 0.01 0.01 90 1012.9
20260507094729 41 120 0.0 0.0 0.00 0.01 0.01 89 1012.8
20260507094226 41 120 0.0 0.0 0.00 0.01 0.01 89 1013.0
20260507093723 41 120 0.0 0.0 0.00 0.01 0.01 89 1012.8
20260507093221 41 120 0.0 0.0 0.00 0.01 0.01 88 1013.0
20260507092719 41 120 0.0 1.0 0.00 0.01 0.01 87 1012.8
20260507092215 41 120 0.0 1.0 0.00 0.01 0.01 87 1012.8
20260507091711 41 119 0.0 1.0 0.00 0.01 0.01 86 1012.8
20260507091208 41 119 0.0 0.0 0.00 0.01 0.01 87 1012.6
20260507090703 41 119 0.0 0.0 0.00 0.01 0.01 87 1012.7
20260507090200 41 120 0.0 1.0 0.00 0.01 0.01 89 1013.0
20260507085657 41 121 0.0 0.0 0.00 0.01 0.01 87 1012.9
20260507085154 41 120 0.0 0.0 0.00 0.01 0.01 88 1012.9
20260507084651 42 124 0.0 0.0 0.00 0.01 0.01 90 1012.7
20260507084147 42 124 0.0 0.0 0.00 0.01 0.01 89 1012.9
20260507083644 42 118 0.0 0.0 0.00 0.01 0.01 90 1012.8
20260507083141 42 118 0.0 1.0 0.00 0.01 0.01 90 1012.8
20260507082637 42 112 1.0 1.0 0.00 0.01 0.01 90 1012.8
20260507082134 42 110 0.0 2.0 0.00 0.01 0.01 91 1012.8
20260507081630 42 126 0.0 1.0 0.00 0.01 0.01 91 1012.9
20260507081127 42 127 0.0 0.0 0.00 0.01 0.01 90 1012.9
20260507080623 42 127 0.0 0.0 0.00 0.01 0.01 90 1012.9
20260507080120 42 134 0.0 0.0 0.00 0.01 0.01 90 1012.9
20260507075619 42 135 0.0 0.0 0.00 0.01 0.01 92 1012.7
20260507075116 42 143 0.0 1.0 0.00 0.01 0.01 93 1012.8
20260507074613 42 144 0.0 0.0 0.00 0.01 0.01 93 1013.0
20260507074112 42 144 0.0 0.0 0.00 0.01 0.01 93 1012.9
20260507073607 42 144 0.0 0.0 0.00 0.01 0.01 93 1012.8
20260507073103 43 144 0.0 1.0 0.00 0.01 0.01 93 1012.7
20260507072601 42 144 0.0 1.0 0.00 0.01 0.01 92 1012.7
20260507072058 42 176 2.0 2.0 0.00 0.01 0.01 93 1012.7
20260507071556 43 128 0.0 1.0 0.00 0.01 0.01 94 1012.8
20260507071052 43 128 0.0 0.0 0.00 0.01 0.01 94 1012.7
20260507070549 43 129 0.0 1.0 0.00 0.01 0.01 93 1012.6
20260507070046 43 130 0.0 1.0 0.00 0.01 0.01 94 1012.6
20260507065542 43 127 0.0 0.0 0.00 0.01 0.01 94 1012.6
20260507065040 43 128 0.0 1.0 0.00 0.01 0.01 95 1012.7
20260507064538 43 132 0.0 0.0 0.00 0.01 0.01 95 1012.8
20260507064036 43 133 0.0 1.0 0.00 0.01 0.01 94 1012.6
20260507063533 43 139 0.0 1.0 0.00 0.01 0.01 94 1012.5
20260507063030 43 140 0.0 0.0 0.00 0.01 0.01 94 1012.7
20260507062527 43 140 0.0 1.0 0.00 0.01 0.01 94 1012.6
20260507062024 43 120 1.0 1.0 0.00 0.01 0.01 93 1012.6
20260507061522 43 123 1.0 1.0 0.00 0.01 0.01 93 1012.5
20260507061020 43 133 0.0 1.0 0.00 0.01 0.01 94 1012.6
20260507060517 44 119 0.0 1.0 0.00 0.01 0.01 95 1012.5
20260507060014 44 122 1.0 1.0 0.00 0.01 0.01 96 1012.7
20260507055509 44 113 0.0 1.0 0.00 0.01 0.01 97 1012.8
20260507055005 44 103 0.0 2.0 0.00 0.01 0.01 97 1013.0
20260507054501 45 137 1.0 2.0 0.00 0.01 0.01 98 1012.9
20260507053959 45 133 0.0 0.0 0.00 0.01 0.01 98 1013.2
20260507053457 45 131 1.0 2.0 0.00 0.01 0.01 98 1013.2
20260507052955 45 117 0.0 0.0 0.00 0.01 0.01 98 1013.0
20260507052452 45 117 0.0 1.0 0.00 0.01 0.01 98 1013.3
20260507051949 45 132 1.0 1.0 0.00 0.01 0.01 98 1013.3
20260507051446 45 148 0.0 1.0 0.00 0.01 0.01 98 1013.1
20260507050943 45 118 0.0 0.0 0.00 0.01 0.01 98 1013.1
20260507050439 45 120 0.0 1.0 0.00 0.01 0.01 98 1013.1
20260507045937 45 127 0.0 1.0 0.00 0.01 0.01 98 1012.9
20260507045433 45 114 0.0 2.0 0.07 0.01 0.01 98 1013.1
20260507044930 45 121 1.0 1.0 0.07 0.01 0.01 98 1013.0
20260507044427 45 131 0.0 0.0 0.00 0.00 0.00 98 1013.1
20260507043923 45 131 0.0 2.0 0.00 0.00 0.00 98 1013.2
20260507043419 45 132 1.0 1.0 0.00 0.00 0.00 98 1012.9
20260507042916 45 121 0.0 0.0 0.00 0.00 0.00 98 1012.9
20260507042413 45 147 1.0 1.0 0.00 0.00 0.00 98 1013.2
20260507041908 45 128 0.0 0.0 0.00 0.00 0.00 98 1013.0
20260507041405 45 128 0.0 1.0 0.00 0.00 0.00 98 1012.6
20260507040903 45 125 1.0 1.0 0.00 0.00 0.00 98 1012.7
20260507040358 45 127 0.0 1.0 0.00 0.00 0.00 98 1012.8
20260507035854 45 128 1.0 1.0 0.00 0.28 0.28 98 1012.8
20260507035350 45 130 0.0 0.0 0.00 0.28 0.28 98 1012.9
20260507034848 45 130 0.0 1.0 0.00 0.28 0.28 98 1012.8
20260507034344 45 122 1.0 1.0 0.00 0.28 0.28 98 1012.8
20260507033843 45 119 0.0 0.0 0.00 0.28 0.28 98 1012.9
20260507033340 45 118 0.0 0.0 0.00 0.28 0.28 98 1013.0
20260507032837 45 118 0.0 0.0 0.00 0.28 0.28 98 1013.2
20260507032333 45 127 0.0 1.0 0.00 0.28 0.28 98 1013.2
20260507031830 45 129 0.0 1.0 0.00 0.28 0.28 98 1013.4
20260507031327 45 133 0.0 1.0 0.00 0.28 0.28 98 1013.3
20260507030823 45 116 0.0 0.0 0.00 0.28 0.28 98 1012.9
20260507030321 45 116 0.0 0.0 0.07 0.28 0.28 97 1013.0
20260507025817 45 144 0.0 1.0 0.07 0.28 0.28 98 1013.0
20260507025315 45 129 0.0 0.0 0.00 0.27 0.27 98 1013.0
20260507024813 45 129 0.0 0.0 0.00 0.27 0.27 97 1012.8
20260507024310 46 129 0.0 0.0 0.00 0.27 0.27 97 1012.8
20260507023805 45 132 0.0 1.0 0.00 0.27 0.27 98 1012.8
20260507023302 45 131 1.0 1.0 0.00 0.27 0.27 97 1012.8
20260507022800 46 124 0.0 0.0 0.00 0.27 0.27 97 1013.0
20260507022256 45 124 0.0 1.0 0.00 0.27 0.27 97 1012.6
20260507021752 45 123 0.0 0.0 0.00 0.27 0.27 97 1012.6
20260507021248 46 123 0.0 0.0 0.00 0.27 0.27 97 1012.6
20260507020746 46 123 0.0 0.0 0.00 0.27 0.27 97 1012.7
20260507020242 46 123 0.0 0.0 0.00 0.27 0.27 97 1012.7
20260507015740 46 123 0.0 0.0 0.00 0.27 0.27 97 1012.3
20260507015237 46 123 0.0 0.0 0.00 0.27 0.27 97 1012.5
20260507014733 46 123 0.0 0.0 0.00 0.27 0.27 97 1012.5
20260507014230 46 125 0.0 0.0 0.00 0.27 0.27 97 1012.3
20260507013727 45 125 0.0 0.0 0.00 0.27 0.27 97 1012.3
20260507013224 46 125 0.0 1.0 0.00 0.27 0.27 97 1012.6
20260507012721 46 125 1.0 1.0 0.00 0.27 0.27 97 1012.5
20260507012217 46 124 0.0 1.0 0.00 0.27 0.27 96 1011.9
20260507011715 46 118 1.0 1.0 0.00 0.27 0.27 96 1011.7
20260507011211 46 128 1.0 1.0 0.00 0.27 0.27 96 1012.0
20260507010710 45 130 0.0 1.0 0.00 0.27 0.27 96 1012.2
20260507010206 46 155 0.0 2.0 0.00 0.27 0.27 96 1012.0
20260507005704 46 137 0.0 1.0 0.00 0.27 0.27 96 1012.0
20260507005200 46 129 1.0 1.0 0.00 0.27 0.27 96 1012.2
20260507004657 46 149 0.0 2.0 0.00 0.27 0.27 95 1012.2
20260507004154 46 80 1.0 2.0 0.00 0.27 0.27 96 1012.1
20260507003651 46 153 1.0 2.0 0.00 0.27 0.27 96 1012.2
20260507003151 46 148 2.0 4.0 0.00 0.27 0.27 96 1012.3
20260507002648 46 126 2.0 2.0 0.00 0.27 0.27 96 1012.1
20260507002143 46 127 2.0 2.0 0.00 0.27 0.27 96 1011.9
20260507001640 46 126 1.0 2.0 0.00 0.27 0.27 97 1012.1
20260507001138 46 141 1.0 1.0 0.00 0.27 0.27 97 1012.8
20260507000634 46 117 0.0 2.0 0.00 0.27 0.27 97 1012.7
20260507000129 46 94 0.0 2.0 0.00 0.27 0.27 97 1012.5
20260506235627 47 141 1.0 2.0 0.00 0.27 0.27 97 1012.5
20260506235127 47 164 2.0 3.0 0.00 0.27 0.27 97 1012.3
20260506234625 47 142 1.0 3.0 0.00 0.27 0.27 97 1012.2
20260506234122 47 157 2.0 2.0 0.00 0.27 0.27 97 1012.1
20260506233619 47 132 1.0 2.0 0.00 0.27 0.27 97 1012.1
20260506233116 48 106 1.0 1.0 0.00 0.27 0.27 97 1012.2
20260506232612 48 137 0.0 1.0 0.00 0.27 0.27 97 1011.9
20260506232107 48 167 0.0 2.0 0.00 0.27 0.27 97 1012.0
20260506231605 48 123 0.0 3.0 0.00 0.27 0.27 98 1012.1
20260506231103 48 130 1.0 2.0 0.00 0.27 0.27 98 1012.0
20260506230559 48 127 1.0 2.0 0.00 0.27 0.27 98 1011.8
20260506230056 48 115 1.0 1.0 0.00 0.27 0.27 98 1011.8
20260506225553 48 79 2.0 4.0 0.00 0.27 0.27 98 1011.7
20260506225049 48 123 0.0 1.0 0.00 0.27 0.27 98 1011.6
20260506224546 48 133 0.0 1.0 0.00 0.27 0.27 98 1011.4
20260506224043 48 140 0.0 1.0 0.00 0.27 0.27 98 1011.4
20260506223539 48 131 0.0 0.0 0.00 0.27 0.27 98 1011.6
20260506223036 48 126 0.0 1.0 0.00 0.27 0.27 98 1011.4
20260506222532 48 139 2.0 3.0 0.00 0.27 0.27 98 1011.4
20260506222029 48 137 1.0 2.0 0.00 0.27 0.27 98 1011.5
20260506221526 48 127 1.0 2.0 0.00 0.27 0.27 98 1011.4
20260506221024 48 118 0.0 4.0 0.00 0.27 0.27 98 1011.6
20260506220520 48 120 0.0 1.0 0.00 0.27 0.27 98 1011.4
20260506220016 48 116 0.0 1.0 0.00 0.27 0.27 98 1011.7
20260506215513 48 121 3.0 6.0 0.00 0.27 0.27 98 1011.5
20260506215008 48 118 1.0 1.0 0.00 0.27 0.27 98 1011.4
20260506214506 48 115 2.0 3.0 0.00 0.27 0.27 98 1011.1
20260506214003 48 123 0.0 2.0 0.00 0.27 0.27 97 1011.3
20260506213501 48 126 0.0 1.0 0.00 0.27 0.27 98 1011.4
20260506212957 48 126 0.0 2.0 0.00 0.27 0.27 97 1010.9
20260506212453 49 122 0.0 0.0 0.00 0.27 0.27 97 1011.1
20260506211948 48 125 2.0 2.0 0.00 0.27 0.27 97 1010.8
20260506211445 49 135 1.0 2.0 0.00 0.27 0.27 97 1010.6
20260506210942 49 123 0.0 1.0 0.00 0.27 0.27 97 1010.8
20260506210438 49 123 1.0 1.0 0.00 0.27 0.27 97 1010.8
20260506205936 49 122 0.0 1.0 0.00 0.27 0.27 97 1010.5
20260506205432 49 146 1.0 3.0 0.00 0.27 0.27 97 1010.4
20260506204928 49 140 1.0 2.0 0.00 0.27 0.27 97 1010.5
20260506204426 49 144 4.0 4.0 0.00 0.27 0.27 97 1010.4
20260506203923 49 114 1.0 1.0 0.00 0.27 0.27 97 1010.5
20260506203420 49 35 0.0 1.0 0.00 0.27 0.27 97 1010.6
20260506202917 49 127 2.0 2.0 0.00 0.27 0.27 97 1010.5
20260506202414 49 95 0.0 3.0 0.00 0.27 0.27 97 1010.6
20260506201911 50 146 0.0 7.0 0.00 0.27 0.27 97 1010.3